Tracking 20942 objects as of 4-Jul-2020
HD Live streaming from Space Station
objects crossing your sky now

COSMOS 469

Track COSMOS 469 now!
10-day predictions
COSMOS 469 is classified as:


NORAD ID: 5721
Int'l Code: 1971-117A
Perigee: 959.3 km
Apogee: 1,011.0 km
Inclination: 64.5 °
Period: 104.6 minutes
Semi major axis: 7356 km
RCS: 2.893 m2 (large)
Launch date: December 25, 1971
Source: Commonwealth of Independent States (former USSR) (CIS)
Launch site: TYURATAM MISSILE AND SPACE COMPLEX (TTMTR)
aabbcc
Your satellite tracking list
Your tracking list is empty




NASA's NSSDC Master Catalog

Two Line Element Set (TLE):
1  5721U 71117A   20186.51332503 -.00000084  00000-0  63673-5 0  9994
2  5721  64.4860 248.7850 0035087 358.7372   1.3585 13.76027882438288
Source of the keplerian elements: AFSPC